CZ-4C DEB, 43281

Orbit data source: Space-Track

CZ-4C DEB, 43281 is space debris in LEO originally from a launch on Tue, 10 Apr 2018 UTC launched from the Jiuquan Satellite Launch Center, China (JSC). Debris objects in space refer to the collection of defunct objects orbiting the Earth. Examples of debris include non-operational satellites, rocket bodies, and fragments generated from explosions, collisions, or faulty payload assembly.

Loading next visibility...
Identifier
43281, 2018-034G
Orbit
LEO
Country
Flag of CNCN / PRC
Related business
Manufacturer
Unknown
Mission
Spacecraft
Bus & Motor
Unknown
Mass
Unknown
Launch date (UTC)
2018-04-10 (8 years ago)
Launch vehicle
Unknown
Launch site
Jiuquan Satellite Launch Center, China (JSC)
Object type
Payload
Rocket body
Debris
Shape & HBR
Unknown shape, 3.2 m
Radar Cross Section
Large (>1 m²)

Expand to show TLE details & history
Last TLE update: 2 days ago

TLE from 2 days ago
0 CZ-4C DEB
1 43281U 18034G   26171.17066996  .00000009  00000-0  13522-3 0  9990
2 43281  63.3963  96.1110 0272294   7.7230 352.7861 13.44735566338070
Epoch: 2026-06-20T04:05Z
TLE epoch observation values (Epoch: 2026-06-20T04:05:45.884Z)
Latitude
-0.00003°
Longitude
126.28067°
Altitude
891.74 km
Speed
7.506 km/s
True Right ascension
06h 24m 26s
True Declination
0° 00' 00"
Sunlit
Object was in daylight at epoch
Visualization orbit readout
Latitude
Unknown
Longitude
Unknown
Altitude
Unknown
Speed
Unknown
Apparent Right ascension
Unknown
Apparent Declination
Unknown
Sunlit
N/A
Visualization observer readout
Local Sidereal Time
02:13:11
Azimuth
Unknown
Elevation
Unknown
Doppler factor
Unknown
Orbital elements
Apogee altitude
1,293.887 km
Perigee altitude
887.153 km
Semi-major axis
7,468.657 km
Eccentricity
0.02723
Inclination
63.3963°
RAAN
96.111°
Arg. of periapsis
7.723°
True anomaly
352.38061°
Mean anomaly
352.7861°
Eccentric anomaly
352.58475°
Mean motion
3.36263 °/min
Orbital period
107.06 mins
BSTAR
0.00013522
Loading maneuver chart data...
Computing Atmospheric mass density...
Loading historical data...
Loading historical data...
Loading historical data...
Loading historical data...
Loading historical data...
Loading historical data...
Loading historical data...

Documentation

Showing up to 5 results
|